Content
SEND FEEDBACK

Daily
Averages
Monthly
Summary
United States of America

WARREN, MINNESOTA


Home > North America > United States > Minnesota
Elevation: 882 feet     Latitude: 48 19N     Longitude: 096 43W

WEATHER
 
SELECT A DAY
Number of Records: 467,284;   Date Range: 1/1/95 - 12/17/14
 
SHARE

PRINT THIS DATA

[ ← Previous Day ]
WEATHER ALMANAC - JANUARY 31, 2013
[ Next Day → ]
[ °C ]   °F
Weather ElementAverageHighLow
Temperature-11.9 °F-5.8 °F (12:35 am)-20.2 °F (9:55 pm)
Dewpoint-13.9 °F (7:55 pm)-29.2 °F (10:15 pm)
Humidity79.8 %92 % (2:55 am)58 % (10:15 pm)
Barometer30.10 in30.24 in (7:35 pm)29.87 in (12:35 am)
Wind Speed16.2 mph24.2 mph (9:35 am)
Wind Gust27.6 mph (10:15 am)
Weather ElementAverage
Visibility4.4 mi
Wind DirectionWNW (307.4 °)

Weather ElementTotal
Precipitation---
Heating Degree Days78 (Base 65)
Averaged from 68 records on January 31, 2013
WEATHER CONDITIONS BREAKOUT
WIND DIRECTION BREAKOUT
WEATHER BY HOUR - JANUARY 31, 2013
[ °C ]   °F
Local TimeTemperatureDewpointHumidityBarometerVisibilityWind DirectionWind SpeedGust SpeedPrecipitationEventsConditions
12:35 AM-5.8 °F-9.4 °F84 %29.87 in1.5 miNW (320°)18.4 mphOvercast
12:55 AM-5.8 °F-9.4 °F84 %29.87 in1.2 miNW (320°)18.4 mphOvercast
1:15 AM-5.8 °F-9.4 °F84 %29.88 in1.5 miNW (320°)19.6 mphOvercast
1:35 AM-5.8 °F-9.4 °F84 %29.88 in1.8 miNW (320°)20.7 mphOvercast
1:55 AM-7.6 °F-11.2 °F84 %29.89 in1.0 miNW (320°)19.6 mphOvercast
2:15 AM-7.6 °F-11.2 °F84 %29.90 in1.0 miNW (320°)19.6 mphOvercast
2:35 AM-7.6 °F-11.2 °F84 %29.90 in1.0 miNW (320°)18.4 mphOvercast
2:55 AM-7.6 °F-9.4 °F92 %29.91 in1.5 miNW (320°)16.1 mphOvercast
3:15 AM-7.6 °F-11.2 °F84 %29.91 in2.5 miNW (320°)18.4 mphOvercast
3:35 AM-7.6 °F-11.2 °F84 %29.91 in3.0 miNW (320°)17.3 mphOvercast
3:55 AM-7.6 °F-11.2 °F84 %29.92 in2.5 miNNW (330°)17.3 mphOvercast
4:15 AM-7.6 °F-11.2 °F84 %29.93 in2.0 miNNW (330°)20.7 mph25.3 mphOvercast
4:35 AM-7.6 °F-11.2 °F84 %29.94 in2.0 miNNW (330°)18.4 mphOvercast
4:55 AM-7.6 °F-11.2 °F84 %29.96 in4.0 miNW (320°)17.3 mphOvercast
5:15 AM-7.6 °F-14.8 °F71 %29.97 in4.0 miNNW (330°)18.4 mphMostly Cloudy
5:35 AM-7.6 °F-11.2 °F84 %29.97 in3.0 miNW (320°)19.6 mphMostly Cloudy
5:55 AM-9.4 °F-13.0 °F84 %29.98 in3.0 miNNW (330°)19.6 mphMostly Cloudy
6:15 AM-9.4 °F-13.0 °F84 %29.99 in2.5 miNNW (330°)18.4 mph23.0 mphMostly Cloudy
6:35 AM-9.4 °F-14.8 °F77 %30.00 in3.0 miNW (320°)19.6 mphOvercast
6:55 AM-9.4 °F-13.0 °F84 %30.01 in4.0 miNNW (330°)19.6 mphMostly Cloudy
7:15 AM-9.4 °F-13.0 °F84 %30.02 in3.0 miNW (320°)20.7 mph24.2 mphMostly Cloudy
7:35 AM-9.4 °F-13.0 °F84 %30.03 in5.0 miNW (320°)20.7 mphOvercast
7:55 AM-9.4 °F-14.8 °F77 %30.04 in3.0 miNW (320°)21.9 mphOvercast
8:15 AM-9.4 °F-14.8 °F77 %30.06 in4.0 miNW (320°)19.6 mphMostly Cloudy
8:35 AM-9.4 °F-14.8 °F77 %30.07 in2.0 miNW (320°)21.9 mph25.3 mphMostly Cloudy
8:55 AM-9.4 °F-14.8 °F77 %30.08 in2.5 miNW (320°)18.4 mphMostly Cloudy
9:15 AM-11.2 °F-14.8 °F84 %30.09 in1.5 miNW (310°)19.6 mphOvercast
9:35 AM-11.2 °F-14.8 °F84 %30.10 in1.2 miNW (320°)24.2 mphOvercast
9:55 AM-11.2 °F-14.8 °F84 %30.11 in0.8 miNW (320°)23.0 mphOvercast
10:15 AM-11.2 °F-16.6 °F77 %30.12 in1.0 miNW (320°)20.7 mph27.6 mphOvercast
10:35 AM-11.2 °F-14.8 °F84 %30.13 in1.5 miNW (320°)21.9 mph26.5 mphMostly Cloudy
10:55 AM-11.2 °F-16.6 °F77 %30.14 in1.5 miNW (310°)21.9 mphOvercast
11:15 AM-11.2 °F-14.8 °F84 %30.15 in1.8 miNW (310°)21.9 mphOvercast
11:35 AM-11.2 °F-16.6 °F77 %30.15 in1.8 miNW (310°)20.7 mphMostly Cloudy
11:55 AM-11.2 °F-14.8 °F84 %30.16 in1.0 miNW (310°)19.6 mphOvercast
12:15 PM-11.2 °F-18.4 °F70 %30.16 in1.8 miNW (310°)20.7 mphMostly Cloudy
12:35 PM-11.2 °F-16.6 °F77 %30.16 in1.8 miNW (310°)17.3 mphOvercast
12:55 PM-11.2 °F-16.6 °F77 %30.16 in2.5 miNW (310°)18.4 mphMostly Cloudy
1:15 PM-11.2 °F-16.6 °F77 %30.16 in2.0 miNW (310°)17.3 mphMostly Cloudy
1:35 PM-11.2 °F-14.8 °F84 %30.16 in1.8 miNW (310°)20.7 mphOvercast
1:55 PM-11.2 °F-18.4 °F70 %30.17 in3.0 miWNW (300°)19.6 mphOvercast
2:15 PM-11.2 °F-16.6 °F77 %30.18 in2.0 miWNW (300°)18.4 mph23.0 mphOvercast
2:35 PM-11.2 °F-16.6 °F77 %30.18 in2.5 miWNW (300°)17.3 mphMostly Cloudy
2:55 PM-11.2 °F-18.4 °F70 %30.19 in4.0 miWNW (300°)18.4 mph24.2 mphMostly Cloudy
3:15 PM-11.2 °F-16.6 °F77 %30.20 in2.0 miNW (310°)16.1 mphOvercast
3:35 PM-13.0 °F-18.4 °F77 %30.21 in8.0 miWNW (300°)19.6 mphMostly Cloudy
3:55 PM-13.0 °F-22.0 °F64 %30.21 in3.0 miWNW (300°)15.0 mph19.6 mphScattered Clouds
4:15 PM-14.8 °F-16.6 °F92 %30.21 in6.0 miWNW (300°)17.3 mphScattered Clouds
4:35 PM-14.8 °F-22.0 °F70 %30.22 in10.0 miWNW (300°)13.8 mphPartly Cloudy
4:55 PM-14.8 °F-18.4 °F84 %30.22 in2.5 miWNW (300°)15.0 mphScattered Clouds
5:15 PM-14.8 °F-18.4 °F84 %30.22 in5.0 miNW (310°)15.0 mphScattered Clouds
5:35 PM-14.8 °F-22.0 °F70 %30.22 in10.0 miWNW (300°)15.0 mphClear
5:55 PM-16.6 °F-20.2 °F84 %30.23 in10.0 miNW (310°)11.5 mphClear
6:15 PM-16.6 °F-20.2 °F84 %30.23 in10.0 miNW (310°)12.7 mphClear
6:35 PM-16.6 °F-20.2 °F84 %30.23 in10.0 miNW (310°)15.0 mphClear
7:15 PM-16.6 °F-20.2 °F84 %30.23 in10.0 miNW (310°)10.4 mphClear
7:35 PM-16.6 °F-20.2 °F84 %30.24 in10.0 miWNW (300°)9.2 mphClear
7:55 PM-16.6 °F0.0 °F30.23 in10.0 miWNW (300°)8.1 mphClear
8:15 PM-16.6 °F0.0 °F30.23 in10.0 miWest (280°)5.8 mphClear
8:35 PM-18.4 °F0.0 °F30.23 in10.0 miWest (280°)5.8 mphClear
9:15 PM-18.4 °F0.0 °F30.23 in7.0 miWest (270°)3.5 mphClear
9:35 PM-18.4 °F0.0 °F30.23 in10.0 miWest (270°)3.5 mphClear
9:55 PM-20.2 °F0.0 °F30.23 in10.0 miWest (260°)3.5 mphClear
10:15 PM-18.4 °F-29.2 °F58 %30.23 in10.0 miWest (270°)4.6 mphClear
10:35 PM-20.2 °F-29.2 °F63 %30.23 in10.0 miWest (270°)4.6 mphClear
10:55 PM-20.2 °F0.0 °F30.22 in10.0 miWest (260°)4.6 mphClear
11:15 PM-20.2 °F0.0 °F30.22 in10.0 miWest (260°)5.8 mphClear
11:35 PM-20.2 °F-27.4 °F69 %30.22 in10.0 miWSW (250°)4.6 mphClear
Hourly data recorded from KTVF, located miles away from Warren, Minnesota







STORIES FROM OUR PARTNERS